Skip Page Navigation
NASA JPL Caltech
NASA Logo - Jet Propulsion Laboratory + View the NASA Portal
+ Near-Earth Object (NEO) Program
Search JPL
JPL Home Earth Solar System Stars & Galaxies Technology
JPL Solar System Dynamics
BODIES ORBITS EPHEMERIDES TOOLS PHYSICAL DATA DISCOVERY FAQ SITE MAP
JPL Small-Body Database Browser
Search: [ help ]  
10612 Houffalize (1997 JR17)
Classification: Main-belt Asteroid          SPK-ID: 2010612
Ephemeris | Orbit Diagram | Orbital Elements | Physical Parameters | Discovery Circumstances ]

[ show orbit diagram ]
Orbital Elements at Epoch 2457000.5 (2014-Dec-09.0) TDB
Reference: JPL 15 (heliocentric ecliptic J2000)
 Element Value Uncertainty (1-sigma)   Units 
e .01287022182036783 4.8246e-08  
a 2.92453554666492 2.369e-08 AU
q 2.886896125457792 1.3779e-07 AU
i 2.320322229213981 5.4628e-06 deg
node 161.3690330184764 0.00011944 deg
peri 124.6067232257069 0.00024219 deg
M 136.5192201477475 0.0002101 deg
tp 2456307.752317647089
(2013-Jan-15.25231765)
0.0010662 JED
period 1826.769632709206
5.00
2.2196e-05
6.077e-08
d
yr
n .1970691835215692 2.3945e-09 deg/d
Q 2.962174967872048 2.3995e-08 AU
  Orbit Determination Parameters
   # obs. used (total)      1537  
   data-arc span      12819 days (35.10 yr)  
   first obs. used      1979-12-23  
   last obs. used      2015-01-27  
   planetary ephem.      DE431  
   SB-pert. ephem.      SB431-BIG16  
   condition code      0  
   fit RMS      .51475  
   data source      ORB  
   producer      Otto Matic  
   solution date      2015-Feb-04 13:29:34  

Additional Information
 Earth MOID = 1.87266 AU 
 T_jup = 3.277 
[ show covariance matrix ]

Ephemeris | Orbit Diagram | Orbital Elements | Physical Parameters | Discovery Circumstances ]

Physical Parameter Table
Parameter Symbol Value Units Sigma Reference Notes
absolute magnitude H 13.1 mag n/a MPO267749  

10612 Houffalize           Discovered 1997 May 3 by E. W. Elst at the European Southern Observatory.
Houffalize, a small city on the Ourthe river in the province of Luxemburg (Belgium), was completely destroyed at the end of 1944. Rebuilt, it is now a tourist attraction.
NOTE: some special characters may not display properly (any characters within {} are an attempt to place the proper accent above a character)
Reference: 20071124/MPCPages.arcLast Updated: 2007-11-26

Alternate Designations
 1997 JR17 = 1979 YW1 = 1988 RX5 = 1997 LG14 = 1998 OT13 = 1998 QC22 
Ephemeris | Orbit Diagram | Orbital Elements | Physical Parameters | Discovery Circumstances ]
ABOUT SSD CREDITS/AWARDS PRIVACY/COPYRIGHT GLOSSARY LINKS
FirstGov 2015-Mar-01 06:53 UT
(server date/time)  
NASA Home Page
Site Manager:   Ryan S. Park
Webmaster  Alan B. Chamberlin